CZ-2C R/B

Last updated on Mon Jun 22 2026 00:02:14 GMT+0000 (Coordinated Universal Time)

1 52794U 22058K 26171.31288139 .00034149 00000+0 37678-3 0 9990 2 52794 50.1848 147.2516 0032400 280.9513 78.7816 15.62055000226133
UTC large
Height (km)
Speed (km/s)
/
Latitude / Longitude
Inclination (degrees)
Orbital Period (minutes)
Azimuth
Elevation
Range (km)
Doppler Factor

Next 0 passes for location: London (51.5072 / 0.1276)

No passes found over London.
CZ-2C R/B